Weather History for Siler City Muni, Siler City,, NC

Change the Weather History Date:

Sunday, March 30, 2014

  Actual Average (KHBI) Record (KHBI)
Temperature  
Mean Temperature 48 °F -  
Max Temperature 57 °F 68 °F 86 °F (1945)
Min Temperature 39 °F 47 °F 22 °F (1964)
Degree Days  
Heating Degree Days 17    
Moisture  
Dew Point 32 °F    
Average Humidity 58    
Maximum Humidity 90    
Minimum Humidity 35    
Precipitation  
Precipitation 0.00 in - - ()
Sea Level Pressure  
Sea Level Pressure 29.79 in    
Wind  
Wind Speed 9 mph (WNW)    
Max Wind Speed 17 mph    
Max Gust Speed 29 mph    
Visibility 10 miles    
Events Rain    
Averages and records for this station are not official NWS values.
T = Trace of Precipitation, MM = Missing Value Source: NWS Daily Summary

Daily Weather History Graph

Daily Weather History Graph

Search for Another Location

Airport:

Trip Planner

Search our weather history database for the weather conditions in past years. The results will help you decide how hot, cold, wet, or windy it might be!

Date:

Astronomy

Mar. 30, 2014 Rise Set
Actual Time 7:07 AM EDT 7:38 PM EDT
Civil Twilight 6:41 AM EDT 8:03 PM EDT
Nautical Twilight 6:11 AM EDT 8:33 PM EDT
Astronomical Twilight 5:40 AM EDT 9:04 PM EDT
Moon 6:51 AM EDT (3/30) 7:47 PM EDT (3/30)
Length of Visible Light 13h 22m
Length of Day
12h 30m
Waning Crescent, 0% of the Moon is Illuminated
Mar 30
Waning Crescent
Mar 30
New
Apr 7
First Quarter
Apr 15
Full
Apr 22
Last Quarter

Hourly Weather History & Observations

Time (EDT) Temp. Windchill Dew Point Humidity Pressure Visibility Wind Dir Wind Speed Gust Speed Precip Events Conditions
12:15 AM 57.4 °F - 54.5 °F 90% 29.60 in 10.0 mi WNW 6.9 mph - N/A   Overcast
12:35 AM 56.7 °F - 51.8 °F 84% 29.61 in 10.0 mi WNW 9.2 mph 16.1 mph N/A   Overcast
12:55 AM 54.3 °F - 47.3 °F 77% 29.63 in 10.0 mi WNW 9.2 mph 18.4 mph N/A   Overcast
1:15 AM 52.9 °F - 45.5 °F 76% 29.63 in 10.0 mi WNW 9.2 mph 18.4 mph N/A   Overcast
1:35 AM 52.0 °F - 43.9 °F 74% 29.65 in 10.0 mi WNW 10.4 mph 16.1 mph N/A   Overcast
1:55 AM 50.2 °F - 40.8 °F 70% 29.66 in 10.0 mi WNW 9.2 mph 19.6 mph N/A   Mostly Cloudy
2:15 AM 48.4 °F - 38.7 °F 69% 29.65 in 10.0 mi WNW 11.5 mph 21.9 mph N/A   Scattered Clouds
2:35 AM 46.9 °F - 37.6 °F 70% 29.65 in 10.0 mi WNW 10.4 mph 19.6 mph N/A   Scattered Clouds
2:55 AM 45.9 °F 41.7 °F 36.7 °F 70% 29.66 in 10.0 mi WNW 8.1 mph 17.3 mph N/A   Scattered Clouds
3:15 AM 45.5 °F 41.8 °F 36.1 °F 70% 29.66 in 10.0 mi WNW 6.9 mph - N/A   Scattered Clouds
3:35 AM 45.5 °F 41.3 °F 35.4 °F 68% 29.66 in 10.0 mi WNW 8.1 mph - N/A   Mostly Cloudy
3:55 AM 45.3 °F 41.1 °F 33.1 °F 62% 29.66 in 10.0 mi WNW 8.1 mph 20.7 mph N/A   Overcast
4:15 AM 44.6 °F 39.7 °F 32.4 °F 62% 29.66 in 10.0 mi WNW 9.2 mph 18.4 mph N/A   Overcast
4:35 AM 42.3 °F 36.3 °F 34.9 °F 75% 29.67 in 10.0 mi WNW 10.4 mph 17.3 mph N/A   Overcast
4:55 AM 42.8 °F 36.2 °F 30.9 °F 63% 29.67 in 10.0 mi WNW 12.7 mph 21.9 mph N/A   Overcast
5:15 AM 42.1 °F 37.1 °F 30.4 °F 63% 29.68 in 10.0 mi WNW 8.1 mph - N/A   Mostly Cloudy
5:35 AM 41.7 °F 36.1 °F 29.5 °F 62% 29.68 in 10.0 mi WNW 9.2 mph 20.7 mph N/A   Mostly Cloudy
5:55 AM 41.5 °F 35.4 °F 29.3 °F 62% 29.69 in 10.0 mi WNW 10.4 mph 21.9 mph N/A   Overcast
6:15 AM 41.0 °F 35.8 °F 29.7 °F 64% 29.70 in 10.0 mi WNW 8.1 mph 19.6 mph N/A   Overcast
6:35 AM 40.6 °F 35.4 °F 30.0 °F 66% 29.71 in 10.0 mi West 8.1 mph 20.7 mph N/A   Overcast
6:55 AM 40.5 °F 35.8 °F 30.6 °F 68% 29.71 in 10.0 mi West 6.9 mph 18.4 mph N/A   Light Drizzle
7:15 AM 40.8 °F 34.5 °F 30.2 °F 66% 29.72 in 10.0 mi WNW 10.4 mph 18.4 mph N/A   Overcast
7:35 AM 40.6 °F 33.8 °F 30.4 °F 67% 29.73 in 10.0 mi WNW 11.5 mph 19.6 mph N/A   Overcast
7:55 AM 39.6 °F 35.4 °F 32.0 °F 74% 29.74 in 10.0 mi West 5.8 mph 21.9 mph N/A   Overcast
8:15 AM 40.6 °F 34.8 °F 30.9 °F 68% 29.74 in 10.0 mi WNW 9.2 mph - N/A   Overcast
8:35 AM 41.5 °F 37.1 °F 30.2 °F 64% 29.76 in 10.0 mi NW 6.9 mph - N/A   Overcast
8:55 AM 41.2 °F 36.0 °F 30.9 °F 67% 29.77 in 10.0 mi WNW 8.1 mph 20.7 mph N/A   Overcast
9:15 AM 40.1 °F 33.6 °F 32.0 °F 73% 29.78 in 10.0 mi WNW 10.4 mph 20.7 mph N/A Rain Light Rain
9:35 AM 39.2 °F 34.2 °F 32.9 °F 78% 29.79 in 10.0 mi NW 6.9 mph 18.4 mph N/A Rain Light Rain
9:55 AM 39.6 °F 34.0 °F 33.4 °F 79% 29.80 in 10.0 mi WNW 8.1 mph 16.1 mph N/A   Drizzle
10:10 AM 39.6 °F 33.5 °F 34.0 °F 80% 29.80 in 10.0 mi NW 9.2 mph - N/A Rain Rain
10:35 AM 41.9 °F 35.9 °F 34.0 °F 73% 29.81 in 10.0 mi NW 10.4 mph 18.4 mph N/A   Overcast
10:55 AM 43.7 °F 39.1 °F 34.2 °F 69% 29.81 in 10.0 mi WNW 8.1 mph 18.4 mph N/A   Overcast
11:15 AM 44.4 °F 37.9 °F 32.4 °F 63% 29.82 in 10.0 mi NW 13.8 mph 23.0 mph N/A   Overcast
11:35 AM 44.6 °F 38.8 °F 32.0 °F 61% 29.82 in 10.0 mi NW 11.5 mph 26.5 mph N/A   Overcast
11:55 AM 46.4 °F 40.7 °F 32.4 °F 58% 29.82 in 10.0 mi NNW 12.7 mph 24.2 mph N/A   Overcast
12:15 PM 48.2 °F - 32.2 °F 54% 29.82 in 10.0 mi NW 11.5 mph 21.9 mph N/A   Overcast
12:35 PM 48.2 °F - 31.8 °F 53% 29.82 in 10.0 mi NW 12.7 mph 20.7 mph N/A   Overcast
12:55 PM 49.5 °F - 32.0 °F 51% 29.82 in 10.0 mi WNW 11.5 mph 20.7 mph N/A   Overcast
1:15 PM 49.6 °F - 31.5 °F 50% 29.82 in 10.0 mi WNW 11.5 mph 24.2 mph N/A   Overcast
1:35 PM 49.1 °F - 31.1 °F 50% 29.82 in 10.0 mi WNW 12.7 mph 23.0 mph N/A   Overcast
1:55 PM 49.6 °F - 31.8 °F 50% 29.82 in 10.0 mi NW 12.7 mph 19.6 mph N/A   Overcast
2:15 PM 50.2 °F - 30.6 °F 47% 29.81 in 10.0 mi NW 15.0 mph 26.5 mph N/A   Overcast
2:35 PM 51.3 °F - 31.1 °F 46% 29.81 in 10.0 mi WNW 9.2 mph 20.7 mph N/A   Overcast
2:55 PM 51.8 °F - 31.8 °F 47% 29.81 in 10.0 mi NW 8.1 mph 24.2 mph N/A   Overcast
3:15 PM 51.8 °F - 32.0 °F 47% 29.80 in 10.0 mi WNW 12.7 mph 20.7 mph N/A   Overcast
3:35 PM 51.4 °F - 32.0 °F 47% 29.81 in 10.0 mi WNW 9.2 mph 25.3 mph N/A   Overcast
3:55 PM 51.4 °F - 32.0 °F 47% 29.81 in 10.0 mi NW 17.3 mph 27.6 mph N/A   Overcast
4:15 PM 53.1 °F - 32.2 °F 45% 29.81 in 10.0 mi WNW 13.8 mph 23.0 mph N/A   Overcast
4:35 PM 52.9 °F - 32.2 °F 45% 29.82 in 10.0 mi NW 11.5 mph 23.0 mph N/A   Overcast
4:50 PM 52.9 °F - 31.8 °F 45% 29.83 in 10.0 mi NW 17.3 mph 26.5 mph N/A   Overcast
5:15 PM 55.2 °F - 29.7 °F 38% 29.84 in 10.0 mi NNW 12.7 mph 26.5 mph N/A   Overcast
5:35 PM 54.9 °F - 29.5 °F 38% 29.84 in 10.0 mi NW 17.3 mph 26.5 mph N/A   Scattered Clouds
5:55 PM 55.0 °F - 28.0 °F 35% 29.85 in 10.0 mi NW 12.7 mph 26.5 mph N/A   Clear
6:15 PM 54.9 °F - 28.9 °F 37% 29.86 in 10.0 mi NW 11.5 mph 17.3 mph N/A   Clear
6:35 PM 53.6 °F - 27.5 °F 37% 29.88 in 10.0 mi WNW 13.8 mph 28.8 mph N/A   Clear
6:55 PM 52.3 °F - 27.5 °F 38% 29.89 in 10.0 mi WNW 11.5 mph 19.6 mph N/A   Clear
7:15 PM 51.1 °F - 27.3 °F 40% 29.89 in 10.0 mi NW 9.2 mph 19.6 mph N/A   Clear
7:35 PM 50.4 °F - 27.1 °F 41% 29.91 in 10.0 mi NW 4.6 mph 17.3 mph N/A   Clear
7:55 PM 49.5 °F - 27.5 °F 43% 29.91 in 10.0 mi NW 3.5 mph - N/A   Clear
8:15 PM 49.5 °F - 27.1 °F 42% 29.92 in 10.0 mi NW 10.4 mph 16.1 mph N/A   Clear
8:35 PM 49.3 °F - 26.1 °F 40% 29.93 in 10.0 mi NW 11.5 mph 24.2 mph N/A   Clear
8:55 PM 48.6 °F - 26.2 °F 42% 29.94 in 10.0 mi WNW 8.1 mph 17.3 mph N/A   Clear
9:15 PM 47.8 °F - 26.2 °F 43% 29.95 in 10.0 mi WNW 9.2 mph - N/A   Clear
9:35 PM 47.3 °F - 26.6 °F 45% 29.95 in 10.0 mi WNW 8.1 mph - N/A   Clear
9:55 PM 46.8 °F - 27.1 °F 46% 29.96 in 10.0 mi WNW 5.8 mph - N/A   Clear
10:15 PM 46.0 °F 42.5 °F 27.3 °F 48% 29.96 in 10.0 mi WNW 6.9 mph - N/A   Clear
10:35 PM 45.7 °F 43.4 °F 27.3 °F 49% 29.97 in 10.0 mi WNW 4.6 mph - N/A   Clear
10:55 PM 44.8 °F 42.4 °F 27.5 °F 51% 29.97 in 10.0 mi West 4.6 mph - N/A   Clear
11:15 PM 44.1 °F 40.8 °F 27.9 °F 53% 29.98 in 10.0 mi West 5.8 mph - N/A   Clear
11:35 PM 43.9 °F 41.3 °F 27.7 °F 53% 29.98 in 10.0 mi West 4.6 mph - N/A   Clear
11:55 PM 43.7 °F - 27.7 °F 53% 29.98 in 10.0 mi Calm Calm - N/A   Clear